AAY2597 KRIC-KPIE

Flight info

Callsign AAY2597
Flight time 1h 38m
Altitude 30000
Route KALLI7 DRAIK GSO Q75 TEEEM BADDD BANGZ2
Aircraft B738/M-SDE2E3FGHIRWXY/LB1

Departure

Time 2026-04-25 23:18
Airport Richmond International Airport (KRIC)

Arrival

Time 2026-04-26 00:57
Airport St. Petersburg Clearwater International Airport (KPIE)
Time Latitude Longitude Altitude Speed Heading
2026-04-25 22:45 37.51053 -77.33030 172 ft 0 kts 192°
2026-04-25 23:02 37.51055 -77.33029 166 ft 3 kts 192°
2026-04-25 23:03 37.51074 -77.33024 172 ft 3 kts 192°
2026-04-25 23:03 37.51092 -77.33020 172 ft 3 kts 192°
2026-04-25 23:03 37.51110 -77.33015 172 ft 3 kts 166°
2026-04-25 23:03 37.51124 -77.33028 172 ft 2 kts 108°
2026-04-25 23:04 37.51125 -77.33029 172 ft 0 kts 108°
2026-04-25 23:10 37.51124 -77.33027 172 ft 3 kts 107°
2026-04-25 23:10 37.51111 -77.32964 172 ft 9 kts 105°
2026-04-25 23:10 37.51074 -77.32893 172 ft 11 kts 144°
2026-04-25 23:10 37.50998 -77.32875 172 ft 12 kts 194°
2026-04-25 23:11 37.50910 -77.32903 172 ft 14 kts 194°
2026-04-25 23:11 37.50809 -77.32933 172 ft 16 kts 191°
2026-04-25 23:11 37.50697 -77.32952 172 ft 17 kts 187°
2026-04-25 23:11 37.50578 -77.32986 172 ft 18 kts 191°
2026-04-25 23:12 37.50500 -77.32990 172 ft 7 kts 153°
2026-04-25 23:12 37.50463 -77.32884 172 ft 20 kts 103°
2026-04-25 23:12 37.50441 -77.32710 172 ft 21 kts 95°
2026-04-25 23:12 37.50433 -77.32532 172 ft 20 kts 94°
2026-04-25 23:13 37.50423 -77.32359 172 ft 19 kts 95°
2026-04-25 23:13 37.50412 -77.32192 172 ft 19 kts 94°
2026-04-25 23:13 37.50403 -77.32029 172 ft 18 kts 94°
2026-04-25 23:13 37.50393 -77.31873 172 ft 18 kts 95°
2026-04-25 23:14 37.50384 -77.31721 172 ft 17 kts 94°
2026-04-25 23:14 37.50334 -77.31600 172 ft 16 kts 145°
2026-04-25 23:14 37.50240 -77.31523 172 ft 16 kts 147°
2026-04-25 23:14 37.50136 -77.31441 172 ft 22 kts 148°
2026-04-25 23:15 37.49986 -77.31321 172 ft 26 kts 147°
2026-04-25 23:15 37.49838 -77.31201 172 ft 25 kts 148°
2026-04-25 23:15 37.49700 -77.31091 172 ft 23 kts 147°
2026-04-25 23:15 37.49567 -77.30985 172 ft 22 kts 148°
2026-04-25 23:16 37.49502 -77.30919 172 ft 0 kts 114°
2026-04-25 23:16 37.49497 -77.30904 172 ft 8 kts 109°
2026-04-25 23:16 37.49526 -77.30823 172 ft 0 kts 57°
2026-04-25 23:17 37.49540 -77.30795 172 ft 10 kts 57°
2026-04-25 23:17 37.49585 -77.30726 172 ft 10 kts 29°
2026-04-25 23:17 37.49652 -77.30751 172 ft 11 kts 326°
2026-04-25 23:18 37.49911 -77.30964 171 ft 86 kts 327°
2026-04-25 23:18 37.50634 -77.31542 174 ft 157 kts 328°
2026-04-25 23:18 37.51672 -77.32376 617 ft 184 kts 327°
2026-04-25 23:18 37.52639 -77.33451 1482 ft 185 kts 294°
2026-04-25 23:19 37.52810 -77.35014 2172 ft 191 kts 253°
2026-04-25 23:19 37.52407 -77.36676 2655 ft 204 kts 251°
2026-04-25 23:19 37.51995 -77.38458 2925 ft 224 kts 253°
2026-04-25 23:19 37.51579 -77.40389 3285 ft 240 kts 255°
2026-04-25 23:20 37.51149 -77.42515 3563 ft 260 kts 256°
2026-04-25 23:20 37.50721 -77.44743 4315 ft 262 kts 257°
2026-04-25 23:20 37.50311 -77.46976 5274 ft 261 kts 258°
2026-04-25 23:20 37.49910 -77.49216 6120 ft 264 kts 258°
2026-04-25 23:21 37.49510 -77.51478 6936 ft 265 kts 259°
2026-04-25 23:21 37.49107 -77.53760 7733 ft 268 kts 259°
2026-04-25 23:21 37.48696 -77.56061 8556 ft 271 kts 257°
2026-04-25 23:21 37.48159 -77.58351 9355 ft 274 kts 254°
2026-04-25 23:22 37.47567 -77.60650 10134 ft 277 kts 254°
2026-04-25 23:22 37.46961 -77.63016 10524 ft 295 kts 254°
2026-04-25 23:22 37.46308 -77.65577 10714 ft 319 kts 253°
2026-04-25 23:23 37.44819 -77.71196 11058 ft 361 kts 253°
2026-04-25 23:23 37.44004 -77.74236 11514 ft 370 kts 253°
2026-04-25 23:23 37.43179 -77.77315 11994 ft 372 kts 253°
2026-04-25 23:23 37.42351 -77.80402 11986 ft 372 kts 253°
2026-04-25 23:24 37.41524 -77.83490 11973 ft 373 kts 253°
2026-04-25 23:24 37.40695 -77.86585 11978 ft 373 kts 253°
2026-04-25 23:24 37.39869 -77.89672 11982 ft 373 kts 253°
2026-04-25 23:24 37.39040 -77.92765 11986 ft 373 kts 253°
2026-04-25 23:25 37.38212 -77.95853 11973 ft 373 kts 253°
2026-04-25 23:25 37.37384 -77.98937 11969 ft 373 kts 253°
2026-04-25 23:25 37.36553 -78.02030 11970 ft 374 kts 253°
2026-04-25 23:25 37.35719 -78.05131 12189 ft 376 kts 253°
2026-04-25 23:26 37.34874 -78.08267 12765 ft 380 kts 253°
2026-04-25 23:26 37.34023 -78.11424 13488 ft 382 kts 253°
2026-04-25 23:26 37.33167 -78.14594 14087 ft 386 kts 253°
2026-04-25 23:26 37.32298 -78.17809 14591 ft 391 kts 253°
2026-04-25 23:27 37.31418 -78.21061 15109 ft 396 kts 253°
2026-04-25 23:27 37.30539 -78.24305 15629 ft 400 kts 253°
2026-04-25 23:27 37.29637 -78.27633 16140 ft 404 kts 253°
2026-04-25 23:27 37.28722 -78.31000 16646 ft 409 kts 253°
2026-04-25 23:28 37.27817 -78.34401 17140 ft 413 kts 255°
2026-04-25 23:28 37.26999 -78.37877 17625 ft 417 kts 256°
2026-04-25 23:28 37.26225 -78.41400 18104 ft 421 kts 257°
2026-04-25 23:28 37.25453 -78.44970 18517 ft 425 kts 257°
2026-04-25 23:29 37.24672 -78.48557 18968 ft 427 kts 256°
2026-04-25 23:29 37.23876 -78.52167 19422 ft 429 kts 256°
2026-04-25 23:29 37.23080 -78.55738 19848 ft 432 kts 256°
2026-04-25 23:29 37.22261 -78.59380 20278 ft 435 kts 256°
2026-04-25 23:30 37.21434 -78.63040 20693 ft 437 kts 256°
2026-04-25 23:30 37.20600 -78.66722 21105 ft 440 kts 256°
2026-04-25 23:30 37.19760 -78.70427 21516 ft 443 kts 256°
2026-04-25 23:30 37.18915 -78.74144 21930 ft 445 kts 256°
2026-04-25 23:31 37.18064 -78.77888 22322 ft 447 kts 256°
2026-04-25 23:31 37.17207 -78.81651 22676 ft 450 kts 256°
2026-04-25 23:31 37.16343 -78.85441 23021 ft 453 kts 256°
2026-04-25 23:31 37.15472 -78.89257 23373 ft 456 kts 256°
2026-04-25 23:32 37.14595 -78.93087 23680 ft 457 kts 256°
2026-04-25 23:32 37.13501 -78.96839 23958 ft 463 kts 243°
2026-04-25 23:32 37.11559 -79.00070 24266 ft 468 kts 225°
2026-04-25 23:32 37.09012 -79.02629 24618 ft 471 kts 218°
2026-04-25 23:33 37.06349 -79.05048 24909 ft 473 kts 217°
2026-04-25 23:33 37.03667 -79.07456 25151 ft 476 kts 217°
2026-04-25 23:33 37.00973 -79.09882 25408 ft 478 kts 218°
2026-04-25 23:33 36.98311 -79.12298 25673 ft 480 kts 218°
2026-04-25 23:34 36.95577 -79.14800 25948 ft 481 kts 218°
2026-04-25 23:34 36.92903 -79.17260 26185 ft 484 kts 218°
2026-04-25 23:34 36.90187 -79.19764 26437 ft 486 kts 218°
2026-04-25 23:34 36.87465 -79.22276 26745 ft 486 kts 218°
2026-04-25 23:35 36.84743 -79.24785 27145 ft 484 kts 218°
2026-04-25 23:35 36.82035 -79.27279 27574 ft 482 kts 218°
2026-04-25 23:35 36.79341 -79.29757 27985 ft 481 kts 218°
2026-04-25 23:35 36.76648 -79.32231 28352 ft 480 kts 218°
2026-04-25 23:36 36.73992 -79.34669 28713 ft 480 kts 218°
2026-04-25 23:36 36.72171 -79.36339 28981 ft 479 kts 218°
2026-04-25 23:36 36.68614 -79.39598 29509 ft 478 kts 218°
2026-04-25 23:36 36.65936 -79.42048 29893 ft 477 kts 218°
2026-04-25 23:37 36.63244 -79.44511 29869 ft 482 kts 218°
2026-04-25 23:37 36.57854 -79.49433 29880 ft 478 kts 218°
2026-04-25 23:38 36.52498 -79.54315 29852 ft 476 kts 218°
2026-04-25 23:38 36.47185 -79.59151 29856 ft 476 kts 218°
2026-04-25 23:39 36.41839 -79.64008 29856 ft 476 kts 218°
2026-04-25 23:39 36.36492 -79.68857 29899 ft 476 kts 218°
2026-04-25 23:40 36.31130 -79.73713 29895 ft 477 kts 218°
2026-04-25 23:40 36.25791 -79.78540 29894 ft 478 kts 218°
2026-04-25 23:41 36.20402 -79.83399 29864 ft 479 kts 218°
2026-04-25 23:41 36.15007 -79.88257 29863 ft 480 kts 218°
2026-04-25 23:42 36.09602 -79.93118 29862 ft 481 kts 218°
2026-04-25 23:42 36.04094 -79.97834 29853 ft 483 kts 211°
2026-04-25 23:43 35.97905 -80.01106 29868 ft 485 kts 203°
2026-04-25 23:43 35.91636 -80.04092 29872 ft 486 kts 203°
2026-04-25 23:44 35.85342 -80.07137 29896 ft 486 kts 203°
2026-04-25 23:44 35.80119 -80.09699 29905 ft 485 kts 203°
2026-04-25 23:45 35.73848 -80.12788 29904 ft 484 kts 203°
2026-04-25 23:45 35.67601 -80.15860 29907 ft 483 kts 203°
2026-04-25 23:46 35.61358 -80.18922 29892 ft 483 kts 203°
2026-04-25 23:46 35.55114 -80.21979 29942 ft 483 kts 203°
2026-04-25 23:47 35.48863 -80.25034 29950 ft 484 kts 203°
2026-04-25 23:47 35.42635 -80.28072 29951 ft 485 kts 203°
2026-04-25 23:48 35.36356 -80.31130 29938 ft 486 kts 203°
2026-04-25 23:48 35.30067 -80.34187 29931 ft 486 kts 203°
2026-04-25 23:49 35.23785 -80.37237 29912 ft 485 kts 203°
2026-04-25 23:49 35.17511 -80.40277 29902 ft 484 kts 203°
2026-04-25 23:50 35.11286 -80.43288 29913 ft 483 kts 203°
2026-04-25 23:50 35.05041 -80.46304 29919 ft 481 kts 203°
2026-04-25 23:51 34.98824 -80.49302 29919 ft 479 kts 203°
2026-04-25 23:51 34.92627 -80.52286 29923 ft 477 kts 203°
2026-04-25 23:52 34.86450 -80.55255 29906 ft 476 kts 203°
2026-04-25 23:52 34.80330 -80.58192 29917 ft 476 kts 203°
2026-04-25 23:53 34.74167 -80.61146 29913 ft 476 kts 203°
2026-04-25 23:53 34.68007 -80.64093 29926 ft 476 kts 203°
2026-04-25 23:54 34.62297 -80.68054 29925 ft 472 kts 221°
2026-04-25 23:54 34.57435 -80.73374 29924 ft 471 kts 224°
2026-04-25 23:55 34.52593 -80.78735 29923 ft 471 kts 224°
2026-04-25 23:55 34.47712 -80.84042 29920 ft 471 kts 224°
2026-04-25 23:56 34.42817 -80.89325 29928 ft 471 kts 223°
2026-04-25 23:56 34.37922 -80.94602 29926 ft 471 kts 224°
2026-04-25 23:57 34.32981 -80.99821 29937 ft 472 kts 218°
2026-04-25 23:57 34.27179 -81.03584 29936 ft 477 kts 200°
2026-04-25 23:58 34.20836 -81.05976 29938 ft 478 kts 198°
2026-04-25 23:58 34.14473 -81.08332 29929 ft 479 kts 199°
2026-04-25 23:59 34.08155 -81.10724 29928 ft 478 kts 199°
2026-04-25 23:59 34.01813 -81.13154 29934 ft 478 kts 199°
2026-04-26 00:00 33.95480 -81.15583 29933 ft 477 kts 199°
2026-04-26 00:00 33.89153 -81.18003 29934 ft 477 kts 199°
2026-04-26 00:01 33.82831 -81.20416 29929 ft 476 kts 199°
2026-04-26 00:01 33.76517 -81.22823 29928 ft 476 kts 199°
2026-04-26 00:02 33.70204 -81.25224 29926 ft 475 kts 199°
2026-04-26 00:02 33.63892 -81.27622 29926 ft 475 kts 199°
2026-04-26 00:03 33.57592 -81.30012 29921 ft 475 kts 199°
2026-04-26 00:03 33.51285 -81.32401 29931 ft 475 kts 199°
2026-04-26 00:04 33.44985 -81.34783 29942 ft 475 kts 199°
2026-04-26 00:04 33.38676 -81.37166 29951 ft 475 kts 199°
2026-04-26 00:05 33.32411 -81.39529 29950 ft 475 kts 199°
2026-04-26 00:05 33.26109 -81.41924 29956 ft 475 kts 200°
2026-04-26 00:06 33.19888 -81.44583 29954 ft 475 kts 201°
2026-04-26 00:06 33.13685 -81.47306 29942 ft 475 kts 201°
2026-04-26 00:07 33.07464 -81.49989 29945 ft 475 kts 201°
2026-04-26 00:07 33.01241 -81.52646 29936 ft 475 kts 201°
2026-04-26 00:08 32.95018 -81.55299 29935 ft 475 kts 201°
2026-04-26 00:08 32.88803 -81.57968 29945 ft 475 kts 202°
2026-04-26 00:09 32.82629 -81.60762 29956 ft 474 kts 202°
2026-04-26 00:09 32.76464 -81.63580 29971 ft 474 kts 202°
2026-04-26 00:10 32.70294 -81.66380 29955 ft 475 kts 202°
2026-04-26 00:10 32.64127 -81.69162 29974 ft 474 kts 202°
2026-04-26 00:11 32.57963 -81.71936 29949 ft 473 kts 202°
2026-04-26 00:11 32.51805 -81.74704 29937 ft 473 kts 202°
2026-04-26 00:12 32.45653 -81.77466 29946 ft 472 kts 202°
2026-04-26 00:12 32.39557 -81.80199 29947 ft 471 kts 202°
2026-04-26 00:13 32.33422 -81.82946 29960 ft 471 kts 202°
2026-04-26 00:13 32.27300 -81.85683 29951 ft 470 kts 202°
2026-04-26 00:14 32.21182 -81.88415 29965 ft 470 kts 202°
2026-04-26 00:14 32.15071 -81.91139 29966 ft 469 kts 202°
2026-04-26 00:15 32.08869 -81.93604 29956 ft 470 kts 199°
2026-04-26 00:15 32.02620 -81.95869 29954 ft 470 kts 199°
2026-04-26 00:16 31.96382 -81.98169 29954 ft 470 kts 199°
2026-04-26 00:16 31.90153 -82.00497 29950 ft 470 kts 199°
2026-04-26 00:17 31.83882 -82.02662 29946 ft 470 kts 195°
2026-04-26 00:17 31.77478 -82.04272 29946 ft 471 kts 193°
2026-04-26 00:18 31.71045 -82.05794 29945 ft 472 kts 193°
2026-04-26 00:18 31.64618 -82.07369 29940 ft 472 kts 194°
2026-04-26 00:19 31.58187 -82.08984 29976 ft 473 kts 194°
2026-04-26 00:19 31.51755 -82.10608 29969 ft 473 kts 194°
2026-04-26 00:20 31.45311 -82.12231 29968 ft 474 kts 194°
2026-04-26 00:20 31.38855 -82.13852 29953 ft 475 kts 194°
2026-04-26 00:21 31.32394 -82.15472 29957 ft 475 kts 194°
2026-04-26 00:21 31.25974 -82.17079 29959 ft 475 kts 194°
2026-04-26 00:22 31.19509 -82.18695 29968 ft 475 kts 194°
2026-04-26 00:22 31.13044 -82.20310 29972 ft 475 kts 194°
2026-04-26 00:23 31.06578 -82.21922 29971 ft 475 kts 194°
2026-04-26 00:23 31.00120 -82.23530 29979 ft 474 kts 194°
2026-04-26 00:24 30.93665 -82.25135 29997 ft 474 kts 194°
2026-04-26 00:24 30.87218 -82.26736 29997 ft 474 kts 194°
2026-04-26 00:25 30.80768 -82.28335 29999 ft 474 kts 194°
2026-04-26 00:25 30.74319 -82.29933 29997 ft 474 kts 194°
2026-04-26 00:26 30.67873 -82.31527 30007 ft 474 kts 194°
2026-04-26 00:26 30.61347 -82.32679 30017 ft 475 kts 188°
2026-04-26 00:27 30.54750 -82.33370 30009 ft 476 kts 187°
2026-04-26 00:27 30.48154 -82.34098 30019 ft 476 kts 188°
2026-04-26 00:28 30.41560 -82.34905 30019 ft 476 kts 188°
2026-04-26 00:28 30.34971 -82.35732 30014 ft 476 kts 188°
2026-04-26 00:29 30.28376 -82.36555 30008 ft 477 kts 188°
2026-04-26 00:29 30.21781 -82.37374 30009 ft 477 kts 188°
2026-04-26 00:30 30.15172 -82.38062 29995 ft 478 kts 183°
2026-04-26 00:30 30.08505 -82.37739 30009 ft 480 kts 178°
2026-04-26 00:31 30.02966 -82.37264 30000 ft 481 kts 178°
2026-04-26 00:31 29.96291 -82.36790 30002 ft 481 kts 179°
2026-04-26 00:32 29.89610 -82.36407 30002 ft 481 kts 179°
2026-04-26 00:32 29.79569 -82.35862 30012 ft 482 kts 180°
2026-04-26 00:33 29.72862 -82.35492 30009 ft 483 kts 180°
2026-04-26 00:33 29.69503 -82.35305 29869 ft 485 kts 180°
2026-04-26 00:33 29.66110 -82.35118 29071 ft 489 kts 180°
2026-04-26 00:34 29.62723 -82.34929 28304 ft 486 kts 180°
2026-04-26 00:34 29.59344 -82.34742 27443 ft 486 kts 180°
2026-04-26 00:34 29.56008 -82.34558 26571 ft 487 kts 180°
2026-04-26 00:34 29.52640 -82.34372 25916 ft 482 kts 180°
2026-04-26 00:35 29.49305 -82.34187 25301 ft 478 kts 179°
2026-04-26 00:35 29.46001 -82.34005 24688 ft 473 kts 179°
2026-04-26 00:35 29.42723 -82.33824 24059 ft 470 kts 179°
2026-04-26 00:35 29.39469 -82.33632 23427 ft 467 kts 178°
2026-04-26 00:36 29.36244 -82.33320 22737 ft 463 kts 176°
2026-04-26 00:36 29.33053 -82.32930 22100 ft 459 kts 175°
2026-04-26 00:36 29.29896 -82.32516 21470 ft 454 kts 175°
2026-04-26 00:36 29.26770 -82.32108 20880 ft 450 kts 175°
2026-04-26 00:37 29.23669 -82.31714 20288 ft 446 kts 176°
2026-04-26 00:37 29.20589 -82.31333 19688 ft 443 kts 176°
2026-04-26 00:37 29.17531 -82.30963 19081 ft 441 kts 176°
2026-04-26 00:37 29.14485 -82.30600 18472 ft 439 kts 176°
2026-04-26 00:38 29.11452 -82.30240 17811 ft 437 kts 176°
2026-04-26 00:38 29.08439 -82.29883 17189 ft 434 kts 176°
2026-04-26 00:38 29.05450 -82.29528 16556 ft 430 kts 176°
2026-04-26 00:38 29.02489 -82.29177 15953 ft 426 kts 176°
2026-04-26 00:39 28.99550 -82.28829 15369 ft 423 kts 175°
2026-04-26 00:39 28.96632 -82.28482 14796 ft 419 kts 175°
2026-04-26 00:39 28.93742 -82.28140 14220 ft 416 kts 175°
2026-04-26 00:39 28.90906 -82.27803 14030 ft 403 kts 175°
2026-04-26 00:40 28.88195 -82.27481 13835 ft 391 kts 175°
2026-04-26 00:40 28.85530 -82.27165 13652 ft 379 kts 175°
2026-04-26 00:40 28.82940 -82.26859 13484 ft 368 kts 175°
2026-04-26 00:40 28.80427 -82.26562 13323 ft 358 kts 175°
2026-04-26 00:41 28.77984 -82.26273 13136 ft 349 kts 175°
2026-04-26 00:41 28.75610 -82.25993 12928 ft 337 kts 175°
2026-04-26 00:41 28.73311 -82.25745 12714 ft 327 kts 178°
2026-04-26 00:41 28.71073 -82.25689 12515 ft 317 kts 181°
2026-04-26 00:42 28.68899 -82.25688 12319 ft 308 kts 181°
2026-04-26 00:42 28.66776 -82.25677 12060 ft 303 kts 181°
2026-04-26 00:42 28.64683 -82.25654 11808 ft 299 kts 181°
2026-04-26 00:42 28.62614 -82.25623 11571 ft 297 kts 180°
2026-04-26 00:43 28.60551 -82.25585 11329 ft 295 kts 180°
2026-04-26 00:43 28.58504 -82.25545 11088 ft 294 kts 180°
2026-04-26 00:43 28.56467 -82.25505 10848 ft 292 kts 180°
2026-04-26 00:43 28.54431 -82.25466 10571 ft 293 kts 180°
2026-04-26 00:44 28.52389 -82.25428 10293 ft 293 kts 180°
2026-04-26 00:44 28.50345 -82.25398 10000 ft 294 kts 180°
2026-04-26 00:44 28.48292 -82.25372 9667 ft 294 kts 180°
2026-04-26 00:44 28.46260 -82.25346 9352 ft 290 kts 180°
2026-04-26 00:45 28.44258 -82.25321 9078 ft 285 kts 180°
2026-04-26 00:45 28.42291 -82.25295 8820 ft 280 kts 180°
2026-04-26 00:45 28.40346 -82.25270 8569 ft 279 kts 180°
2026-04-26 00:45 28.38415 -82.25245 8341 ft 277 kts 180°
2026-04-26 00:46 28.36495 -82.25220 8100 ft 275 kts 180°
2026-04-26 00:46 28.34591 -82.25223 7862 ft 273 kts 181°
2026-04-26 00:46 28.32694 -82.25247 7615 ft 272 kts 182°
2026-04-26 00:46 28.30846 -82.25572 7355 ft 267 kts 201°
2026-04-26 00:47 28.29275 -82.26626 7111 ft 260 kts 224°
2026-04-26 00:47 28.28104 -82.28147 6916 ft 253 kts 232°
2026-04-26 00:47 28.27064 -82.29701 6706 ft 247 kts 233°
2026-04-26 00:47 28.26049 -82.31248 6518 ft 242 kts 233°
2026-04-26 00:48 28.25061 -82.32768 6318 ft 238 kts 234°
2026-04-26 00:48 28.24086 -82.34276 6112 ft 237 kts 234°
2026-04-26 00:48 28.23117 -82.35780 5909 ft 236 kts 234°
2026-04-26 00:48 28.22153 -82.37280 5712 ft 235 kts 234°
2026-04-26 00:49 28.21190 -82.38777 5495 ft 236 kts 234°
2026-04-26 00:49 28.20222 -82.40287 5246 ft 238 kts 234°
2026-04-26 00:49 28.19248 -82.41818 5003 ft 241 kts 234°
2026-04-26 00:49 28.18266 -82.43365 4765 ft 243 kts 234°
2026-04-26 00:50 28.17274 -82.44924 4517 ft 245 kts 234°
2026-04-26 00:50 28.16274 -82.46497 4266 ft 246 kts 235°
2026-04-26 00:50 28.15413 -82.48174 4037 ft 245 kts 243°
2026-04-26 00:50 28.14661 -82.49880 3841 ft 240 kts 244°
2026-04-26 00:51 28.13929 -82.51558 3633 ft 235 kts 244°
2026-04-26 00:51 28.13214 -82.53202 3415 ft 230 kts 244°
2026-04-26 00:51 28.12512 -82.54806 3247 ft 223 kts 244°
2026-04-26 00:51 28.11830 -82.56355 3099 ft 217 kts 244°
2026-04-26 00:52 28.11156 -82.57881 2910 ft 217 kts 244°
2026-04-26 00:52 28.10477 -82.59414 2715 ft 218 kts 244°
2026-04-26 00:52 28.09793 -82.60951 2518 ft 219 kts 244°
2026-04-26 00:52 28.09109 -82.62488 2319 ft 218 kts 244°
2026-04-26 00:53 28.08426 -82.64014 2117 ft 216 kts 244°
2026-04-26 00:53 28.07751 -82.65508 2009 ft 208 kts 244°
2026-04-26 00:53 28.07105 -82.66927 1976 ft 203 kts 244°
2026-04-26 00:53 28.06292 -82.68231 1972 ft 207 kts 221°
2026-04-26 00:54 28.05044 -82.69042 1930 ft 210 kts 203°
2026-04-26 00:54 28.03715 -82.69716 1712 ft 206 kts 204°
2026-04-26 00:54 28.02430 -82.70368 1528 ft 198 kts 201°
2026-04-26 00:54 28.01109 -82.70594 1469 ft 188 kts 172°
2026-04-26 00:55 27.99865 -82.70383 1467 ft 179 kts 169°
2026-04-26 00:55 27.98618 -82.70157 1249 ft 182 kts 170°
2026-04-26 00:55 27.97376 -82.69941 1035 ft 177 kts 170°
2026-04-26 00:55 27.96204 -82.69739 838 ft 163 kts 170°
2026-04-26 00:56 27.95132 -82.69554 601 ft 151 kts 170°
2026-04-26 00:56 27.94129 -82.69381 425 ft 144 kts 169°
2026-04-26 00:56 27.93128 -82.69197 273 ft 148 kts 171°
2026-04-26 00:56 27.92107 -82.69022 46 ft 147 kts 172°
2026-04-26 00:57 27.91191 -82.68867 20 ft 107 kts 171°
2026-04-26 00:57 27.90743 -82.68793 23 ft 20 kts 172°
2026-04-26 00:57 27.90602 -82.68769 26 ft 19 kts 173°
2026-04-26 00:57 27.90545 -82.68861 23 ft 15 kts 264°
2026-04-26 00:58 27.90607 -82.68928 26 ft 13 kts 354°
2026-04-26 00:58 27.90694 -82.68940 23 ft 12 kts 352°
2026-04-26 00:58 27.90776 -82.68957 23 ft 12 kts 349°
2026-04-26 00:58 27.90842 -82.68990 23 ft 10 kts 294°
2026-04-26 00:59 27.90821 -82.69059 25 ft 9 kts 222°
2026-04-26 00:59 27.90763 -82.69065 23 ft 5 kts 177°